THORAD DELTA 1 DEB, 17023

Orbit data source: Space-Track

THORAD DELTA 1 DEB, 17023 is space debris in SSO originally from a launch on Fri, 15 Nov 1974 UTC launched from the Air Force Western Test Range (AFWTR). Debris objects in space refer to the collection of defunct objects orbiting the Earth. Examples of debris include non-operational satellites, rocket bodies, and fragments generated from explosions, collisions, or faulty payload assembly.

Loading next visibility...
Identifier
17023, 1974-089EW
Orbit
SSO
Country
Flag of USUS
Related business
Manufacturer
Unknown
Mission
Spacecraft
Bus & Motor
Unknown
Mass
Unknown
Launch date (UTC)
1974-11-15 (51 years ago)
Launch vehicle
Unknown
Launch site
Air Force Western Test Range (AFWTR)
Object type
Payload
Rocket body
Debris
Shape & HBR
Unknown shape, 0.1 m
Radar Cross Section
Small (<0.1 m²)

Expand to show TLE details & history
Last TLE update: 4 hours ago

TLE from 4 hours ago
0 THORAD DELTA 1 DEB
1 17023U 74089EW  26104.88780579  .00000109  00000-0  82528-3 0  9994
2 17023 101.5041  72.1298 0053821  44.3112  15.9648 12.64666387900708
Epoch: 2026-04-14T21:18Z
TLE epoch observation values (Epoch: 2026-04-14T21:18:26.420Z)
Latitude
58.56959°
Longitude
-109.89035°
Altitude
1,373.203 km
Speed
7.196 km/s
True Right ascension
03h 31m 06s
True Declination
58° 25' 43"
Sunlit
Object was in daylight at epoch
Visualization orbit readout
Latitude
Unknown
Longitude
Unknown
Altitude
Unknown
Speed
Unknown
Apparent Right ascension
Unknown
Apparent Declination
Unknown
Sunlit
N/A
Visualization observer readout
Local Sidereal Time
08:06:27
Azimuth
Unknown
Elevation
Unknown
Doppler factor
Unknown
Orbital elements
Apogee altitude
1,443.126 km
Perigee altitude
1,359.387 km
Semi-major axis
7,779.393 km
Eccentricity
0.00538
Inclination
101.5041°
RAAN
72.1298°
Arg. of periapsis
44.3112°
True anomaly
16.13554°
Mean anomaly
15.9648°
Eccentric anomaly
16.05006°
Mean motion
3.16319 °/min
Orbital period
113.81 mins
BSTAR
0.00082528
Loading maneuver chart data...
Computing Atmospheric mass density...

Documentation

Showing up to 5 results
|